{"data":{"norad_id":61180,"epoch":"2026-05-24T17:18:48.428640Z","epoch_age_seconds":95295,"freshness":"FRESH","line1":"1 61180U 24166B   26144.72139385  .00000190  00000+0  19961-5 0  9990","line2":"2 61180  96.6814  36.7957 0004329  46.8146 313.3482 15.75465512 97041","mean_motion":15.75465512,"eccentricity":0.0004329,"inclination_deg":96.6814,"raan_deg":36.7957,"arg_perigee_deg":46.8146,"mean_anomaly_deg":313.3482,"bstar":1.9961e-6,"rev_number":9704,"period_min":91.40155649437,"perigee_km":340.39712608456,"apogee_km":346.21655216047,"semimajor_km":6721.4438391225,"source":"CELESTRAK","updated_at":"2026-05-25T13:38:02.309733Z"}}